Regional Weather Roundup
Issued by NWS

Home | Current Version | Previous Version | Graphics & Text | Print | Product List | Glossary On
Versions: 1 2 3 4 5 6 7 8 9 10 11 12 13 14 15 16 17 18 19 20 21 22 23 24 25 26 27 28 29 30 31 32 33 34 35 36 37 38 39 40 41 42 43 44 45 46 47 48 49 50
000
ASUS45 KBOU 312207
RWRCO

WEATHER ROUNDUP FOR COLORADO
NATIONAL WEATHER SERVICE DENVER/BOULDER CO
400 PM MDT MON AUG 31 2015

NOTE: "FAIR" INDICATES FEW OR NO CLOUDS BELOW 12000 FEET WITH NO
SIGNIFICANT WEATHER AND/OR OBSTRUCTIONS TO VISIBILITY.

COZ001>005-013-030-031-312300-
...NORTHWEST COLORADO...

CITY           SKY/WX    TMP DP  RH WIND       PRES   REMARKS
CRAIG          PTSUNNY   71  54  54 VRB3      30.16S
HAYDEN         NOT AVBL
MEEKER         PTSUNNY   72  52  49 W7        30.19S
MOUNT WERNER   NOT AVBL
STEAMBOAT SPGS PTSUNNY   74  48  39 SE8       30.21F
WALDEN         CLOUDY    68  39  34 S15G23    30.29F
$$

COZ006>008-011-312300-
...WEST CENTRAL VALLEYS...

CITY           SKY/WX    TMP DP  RH WIND       PRES   REMARKS
GRAND JUNCTION PTSUNNY   82  51  34 E6        30.08F
MONTROSE       PTSUNNY   80  48  32 NW9       30.16F
EAGLE          NOT AVBL
RIFLE          PTSUNNY   74  52  46 VRB3      30.15F
DELTA          PTSUNNY   81  51  35 SW6       30.11F HAZE
NUCLA          PTSUNNY   79  34  19 W10       30.20S
$$

COZ017>023-064>068-312300-
...SOUTHWEST COLORADO...

CITY           SKY/WX    TMP DP  RH WIND       PRES   REMARKS
DURANGO        PTSUNNY   80  37  21 W14G20    30.20F
CORTEZ         SUNNY     82  41  23 W16       30.15F
PAGOSA SPRINGS PTSUNNY   76  41  28 W3        30.27F
TELLURIDE      PTSUNNY   67  42  40 SW5       30.41F
WOLF CREEK PAS PTSUNNY   54  41  62 SW10      30.61F
$$

COZ009-010-012-014-032>034-037-058>063-312300-
...CENTRAL COLORADO...

CITY           SKY/WX    TMP DP  RH WIND       PRES   REMARKS
ASPEN          MOSUNNY   66  49  54 N7        30.29F
BUENA VISTA    RAIN      60  51  70 NW17G26   30.30R
COPPER MTN     CLOUDY    46  43  87 SE5       30.60F
BERTHOUD PASS  HAZE      37  27  65 NW14G24   30.64F THUNDER VSB<1/4
COTTONWOOD PAS TSTM      55  46  71 E9        30.44S
GUNNISON       PTSUNNY   72  43  35 N5        30.30F
KREMMLING      CLOUDY    68  43  40 S9        30.31F
LEADVILLE      PTSUNNY   60  42  51 N13       30.43F
MONARCH PASS   CLOUDY    52  39  62 SW26G32   30.67F
SALIDA         PTSUNNY   77  41  27 W10       30.31F
SUNLIGHT       PTSUNNY   55  52  88 CALM      30.53F
WILKERSON PASS CLOUDY    52  39  62 NW10G26   30.56S
$$

COZ069>075-312300-
...SAN LUIS VALLEY/SANGRE DE CRISTO MOUNTAINS...

CITY           SKY/WX    TMP DP  RH WIND       PRES   REMARKS
ALAMOSA        PTSUNNY   77  44  30 NW17      30.25S
LA VETA PASS   CLOUDY    59  43  55 MISG      30.46R THUNDER
SAGUACHE       CLOUDY    66  45  45 NW15G23   30.34S
$$

COZ035-036-038>040-312300-
...NORTHERN COLORADO FRONT RANGE...

CITY           SKY/WX    TMP DP  RH WIND       PRES   REMARKS
DENVER INTL AP PTSUNNY   87  42  20 NE7       30.07S
DMNS CITY PARK   N/A     72  48  42 W32G46    30.10R
AURORA         PTSUNNY   84  43  23 W6        30.09S
FRONT RANGE AP PTSUNNY   84  41  21 E7        30.08F
ERIE MUNI ARPT TSTM      78  45  30 W18G35    30.09R
BOULDER MUN AP TSTM      72  50  46 SW15G21   30.14R
CENTENNIAL     PTSUNNY   81  42  25 W3        30.11S
BROOMFIELD     TSTM      68  54  60 W33G41    30.13R
FORT COLLINS   PTSUNNY   84  46  26 S8        30.03S
LONGMONT       CLOUDY    79  49  34 SW20G29   30.11R
$$

COZ041-046-047-076>085-087-088-312300-
...PIKES PEAK/PALMER DIVIDE AND SOUTHERN FOOTHILLS...

CITY           SKY/WX    TMP DP  RH WIND       PRES   REMARKS
COLO. SPRINGS  TSTM      67  56  67 W13G22    30.20R
A. F. ACADEMY  TSTM      66  56  69 SW8       30.21R
ELLICOTT       PTSUNNY  N/A N/A N/A E10       30.12F
FALCON         PTSUNNY   68  47  47 MISG      30.22S
FORT CARSON    TSTM      66  54  63 NW41G53   30.11R
LIMON          MOSUNNY   87  46  24 NE12      30.07F
MONUMENT HILL  TSTM      59  52  77 N8G16     30.25R
TRINIDAD       PTSUNNY   82  46  28 E5        30.08F
$$

COZ042>045-048>051-090-091-312300-
...NORTHEAST COLORADO...

CITY           SKY/WX    TMP DP  RH WIND       PRES   REMARKS
GREELEY ARPT   MOSUNNY   88  45  22 SE9       30.03S
AKRON          MOSUNNY   87  45  23 SE8       30.02F
BURLINGTON     SUNNY     90  49  24 E9        29.96F
WRAY           CLOUDY    96  45  17 N12       29.95S
STERLING       MOSUNNY   86  52  30 NE9       29.98F
HOLYOKE        MOSUNNY   91  48  22 NE13G20   29.97F
FORT MORGAN    MOSUNNY   88  47  24 E7        30.02F
$$

COZ086-089-092>099-312300-
...SOUTHEAST COLORADO...

CITY           SKY/WX    TMP DP  RH WIND       PRES   REMARKS
PUEBLO         PTSUNNY   91  45  20 E12       29.98F
LA JUNTA       MOSUNNY   95  45  17 N7        29.95F
LAMAR          SUNNY     94  55  26 E8        29.88F
SPRINGFIELD      N/A     94  50  22 S17       29.94
$$



USA.gov is the U.S. government's official web portal to all federal, state and local government web resources and services.